Regional Weather Roundup
Issued by NWS

Home | Current Version | Previous Version | Text Only | Print | Product List | Glossary Off
Versions: 1 2 3 4 5 6 7 8 9 10 11 12 13 14 15 16 17 18 19 20 21 22 23 24 25 26 27 28 29 30 31 32 33 34 35 36 37 38 39 40 41 42 43 44 45 46 47 48 49 50

000
ASUS43 KLMK 261902
RWRKY
KENTUCKY REGIONAL WEATHER ROUNDUP
NATIONAL WEATHER SERVICE LOUISVILLE KY
200 PM EST MON JAN 26 2015

NOTE "FAIR" INDICATES FEW OR NO CLOUDS BELOW 12,000 FEET
WITH NO SIGNIFICANT WEATHER AND/OR OBSTRUCTIONS TO VISIBILITY.

KYZ001>023-026-027-061>063-070>075-262000-
WESTERN AND SOUTH CENTRAL KENTUCKY

CITY           SKY/WX    TMP DP  RH WIND       PRES   REMARKS
PADUCAH        CLOUDY    37  27  67 W10       29.98F WCI  30
HENDERSON      CLOUDY    30  23  74 W6        29.97F WCI  24
OWENSBORO      CLOUDY    31  27  85 W9        29.97F WCI  23
HOPKINSVILLE   CLOUDY    33  27  80 W10       29.99F WCI  24
BOWLING GREEN  CLOUDY    33  25  72 NW7       29.97F WCI  27
GLASGOW        NOT AVBL
$$

KYZ024-025-028>034-038-045-046-053-262000-
NORTH CENTRAL KENTUCKY

CITY           SKY/WX    TMP DP  RH WIND       PRES   REMARKS
LOUISVILLE/SDF CLOUDY    32  23  69 NW10      29.93F WCI  24
LOUISVILLE/LOU CLOUDY    31  21  66 NW9       29.93F WCI  23
FORT KNOX      CLOUDY    30  24  77 NW7       29.91F WCI  23
$$

KYZ035>037-039>044-047>052-055>060-089>105-262000-
NORTHEAST KENTUCKY

CITY           SKY/WX    TMP DP  RH WIND       PRES   REMARKS
LEXINGTON      CLOUDY    27  22  81 W10       29.89F WCI  17
COVINGTON      PTSUNNY   28  19  69 NW10      29.88F WCI  19
FRANKFORT      CLOUDY    28  21  75 W8        29.90F WCI  20
$$

KYZ054-064>069-076>088-106>120-262000-
SOUTHEAST KENTUCKY

CITY           SKY/WX    TMP DP  RH WIND       PRES   REMARKS
JACKSON        CLOUDY    25  21  85 W6        29.82F WCI  18
LONDON         CLOUDY    28  21  75 W8        29.87S WCI  20
SOMERSET       NOT AVBL
MIDDLESBORO    NOT AVBL
MONTICELLO     CLOUDY    30  27  89 W10       29.94F WCI  21
$$



USA.gov is the U.S. government's official web portal to all federal, state and local government web resources and services.